TimeEST,TemperatureF,Dew PointF,Humidity,Sea Level PressureIn,VisibilityMPH,Wind Direction,Wind SpeedMPH,Gust SpeedMPH,PrecipitationIn,Events,Conditions,WindDirDegrees,DateUTC
12:53 AM,66.9,64.0,90,30.03,10.0,WNW,3.5,-,N/A,,Clear,300,2012-11-05 05:53:00
1:53 AM,68.0,64.9,90,30.02,10.0,Calm,Calm,-,N/A,,Clear,0,2012-11-05 06:53:00
2:53 AM,66.9,64.9,93,30.01,10.0,SW,3.5,-,N/A,,Clear,230,2012-11-05 07:53:00
3:53 AM,68.0,64.9,90,30.00,10.0,Calm,Calm,-,N/A,,Clear,0,2012-11-05 08:53:00
4:53 AM,68.0,64.9,90,30.01,10.0,WNW,3.5,-,N/A,,Clear,300,2012-11-05 09:53:00
5:53 AM,64.9,62.1,90,30.01,10.0,Calm,Calm,-,N/A,,Clear,0,2012-11-05 10:53:00
6:53 AM,66.2,62.6,88,30.03,10.0,Calm,Calm,-,N/A,,Clear,0,2012-11-05 11:53:00
7:53 AM,69.1,64.0,84,30.02,10.0,Calm,Calm,-,N/A,,Clear,0,2012-11-05 12:53:00
8:53 AM,71.1,59.0,66,30.04,10.0,NNW,8.1,-,N/A,,Clear,330,2012-11-05 13:53:00
9:53 AM,73.9,57.9,57,30.03,10.0,WNW,3.5,-,N/A,,Clear,300,2012-11-05 14:53:00
10:53 AM,77.0,59.0,54,30.02,10.0,WNW,8.1,-,N/A,,Clear,290,2012-11-05 15:53:00
11:53 AM,78.1,60.1,54,30.00,10.0,NW,8.1,-,N/A,,Clear,320,2012-11-05 16:53:00
12:53 PM,77.0,59.0,54,29.97,10.0,West,10.4,-,N/A,,Clear,280,2012-11-05 17:53:00
1:53 PM,78.1,60.1,54,29.96,10.0,West,6.9,-,N/A,,Clear,280,2012-11-05 18:53:00
2:53 PM,79.0,60.1,52,29.96,10.0,NW,5.8,-,N/A,,Clear,320,2012-11-05 19:53:00
3:53 PM,75.9,57.9,54,29.96,10.0,NW,8.1,-,N/A,,Clear,320,2012-11-05 20:53:00
4:53 PM,75.0,57.0,53,29.95,10.0,WSW,3.5,-,N/A,,Clear,250,2012-11-05 21:53:00
5:53 PM,73.0,57.0,57,29.96,10.0,WNW,3.5,-,N/A,,Clear,290,2012-11-05 22:53:00
6:53 PM,72.0,57.0,59,29.97,10.0,Calm,Calm,-,N/A,,Clear,0,2012-11-05 23:53:00
7:53 PM,71.1,59.0,66,29.98,10.0,Calm,Calm,-,N/A,,Clear,0,2012-11-06 00:53:00
8:53 PM,72.0,57.0,59,29.99,10.0,Calm,Calm,-,N/A,,Partly Cloudy,0,2012-11-06 01:53:00
9:53 PM,71.1,60.1,68,29.98,10.0,Calm,Calm,-,N/A,,Mostly Cloudy,0,2012-11-06 02:53:00
10:53 PM,71.1,60.1,68,29.97,10.0,Calm,Calm,-,N/A,,Partly Cloudy,0,2012-11-06 03:53:00
11:53 PM,69.1,60.1,73,29.96,10.0,Calm,Calm,-,N/A,,Clear,0,2012-11-06 04:53:00